Simultaneous Nadir Overpasses (SNOs) Predictions

Prediction of SNOs between GOES-16 and TERRA Satellite Orbit:

Table of predicted SNOs for the next 14.0 days since TLE Epoch: 10/5/2019
Index Date Time (GOES-16) GOES-16 Lat,Lon TERRA Lat,Lon Distance(km) Time Diff (sec)
1 10/06/2019 15:32:28 -0.01, -75.21 0.02, -75.29 9.46 80
2 10/08/2019 15:17:37 -0.01, -75.22 -0.64, -72.34 328.43 80
3 10/09/2019 03:41:41 0.01, -75.22 -0.48, -77.53 261.93 80
4 10/11/2019 03:26:49 0.01, -75.25 0.13, -74.57 76.60 80
5 10/13/2019 03:14:38 0.01, -75.27 0.80, -71.62 415.68 80
6 10/13/2019 15:38:33 -0.01, -75.29 0.32, -76.77 169.38 80
7 10/15/2019 15:26:22 -0.01, -75.32 -0.35, -73.83 170.28 80
8 10/16/2019 03:47:46 0.01, -75.33 -0.76, -79.02 419.53 80
9 10/18/2019 03:35:34 0.02, -75.36 -0.14, -76.06 79.65 80




NCC Satellite Simultaneous Nadir Overpasses (SNOs) Prediction Service
